Tracking 17887 objects as of 11-December-2016
HD Live streaming from Space Station
objects crossing your sky now

SL-16 DEB

Track SL-16 DEB now!
10-day predictions


NORAD ID: 19658
Int'l Code: 1988-102E
Perigee: 843.6 km
Apogee: 1,138.9 km
Inclination: 71.0 °
Period: 104.8 minutes
Semi major axis: 7362 km
RCS: 0.0923 m2 (small)
Launch date: November 23, 1988
Source: Commonwealth of Independent States (former USSR) (CIS)
Launch site: TYURATAM MISSILE AND SPACE COMPLEX (TTMTR)

Note: This is SATELLITE DEBRIS
Your satellite tracking list
Your tracking list is empty





NASA's NSSDC Master Catalog

Two Line Element Set (TLE):
1 19658U 88102E   16345.52582360 -.00000007  00000-0  33802-4 0  9996
2 19658  71.0240  84.5794 0200560 285.3483 170.5602 13.74310934406240
Source of the keplerian elements: AFSPC